| time (UTC) | temp F | wind direction | speed MPH | gust MPH | rain 1hr in | rain 24hr in | rain mn in | humidity % | barometer mb |
| 20260504201557 | 75 | 219 | 8.0 | 29.0 | 0.00 | 0.03 | 0.00 | 51 | 1003.7 |
| 20260504193050 | 76 | 224 | 13.0 | 27.0 | 0.00 | 0.03 | 0.00 | 51 | 1004.3 |
| 20260504191605 | 75 | 229 | 9.0 | 24.0 | 0.00 | 0.03 | 0.00 | 52 | 1004.1 |
| 20260504190049 | 76 | 187 | 11.0 | 30.0 | 0.00 | 0.03 | 0.00 | 52 | 1004.3 |
| 20260504183042 | 75 | 236 | 12.0 | 27.0 | 0.00 | 0.03 | 0.00 | 53 | 1004.4 |
| 20260504181539 | 74 | 231 | 15.0 | 25.0 | 0.00 | 0.03 | 0.00 | 53 | 1004.5 |
| 20260504180034 | 74 | 194 | 6.0 | 20.0 | 0.00 | 0.03 | 0.00 | 56 | 1004.5 |
| 20260504173030 | 73 | 291 | 7.0 | 21.0 | 0.00 | 0.03 | 0.00 | 58 | 1004.8 |
| 20260504171539 | 72 | 229 | 9.0 | 18.0 | 0.00 | 0.03 | 0.00 | 59 | 1005.1 |
| 20260504081522 | 52 | 165 | 0.0 | 7.0 | 0.00 | 0.03 | 0.00 | 73 | 1008.5 |
| 20260504044530 | 48 | 139 | 0.0 | 0.0 | 0.00 | 0.03 | 0.00 | 80 | 1010.3 |
| 20260504043038 | 48 | 131 | 0.0 | 1.0 | 0.00 | 0.03 | 0.00 | 81 | 1010.4 |
| 20260504041524 | 48 | 172 | 0.0 | 1.0 | 0.00 | 0.03 | 0.00 | 81 | 1010.5 |
| 20260504040024 | 48 | 123 | 0.0 | 0.0 | 0.00 | 0.03 | 0.00 | 81 | 1010.7 |
| 20260504034518 | 49 | 149 | 0.0 | 1.0 | 0.00 | 0.03 | 0.03 | 80 | 1010.8 |
| 20260504033019 | 49 | 95 | 0.0 | 1.0 | 0.00 | 0.03 | 0.03 | 80 | 1011.1 |
| 20260504031515 | 49 | 142 | 0.0 | 1.0 | 0.00 | 0.03 | 0.03 | 79 | 1011.2 |
| 20260504030016 | 50 | 135 | 0.0 | 3.0 | 0.00 | 0.03 | 0.03 | 78 | 1011.3 |
| 20260504024512 | 50 | 139 | 0.0 | 1.0 | 0.00 | 0.03 | 0.03 | 77 | 1011.4 |
| 20260504023010 | 51 | 207 | 0.0 | 4.0 | 0.00 | 0.03 | 0.03 | 76 | 1011.4 |
| 20260504021511 | 50 | 138 | 0.0 | 3.0 | 0.00 | 0.03 | 0.03 | 77 | 1011.6 |
| 20260504020006 | 50 | 81 | 0.0 | 7.0 | 0.00 | 0.03 | 0.03 | 77 | 1011.7 |
| 20260504014506 | 50 | 118 | 0.0 | 6.0 | 0.00 | 0.03 | 0.03 | 77 | 1011.8 |
| 20260504013003 | 50 | 138 | 0.0 | 6.0 | 0.00 | 0.03 | 0.03 | 77 | 1011.7 |
| 20260504011602 | 50 | 147 | 0.0 | 7.0 | 0.00 | 0.03 | 0.03 | 79 | 1011.7 |
| 20260504010104 | 49 | 155 | 0.0 | 8.0 | 0.00 | 0.03 | 0.03 | 80 | 1011.9 |
| 20260504004608 | 49 | 161 | 0.0 | 7.0 | 0.00 | 0.03 | 0.03 | 82 | 1011.9 |
| 20260504003054 | 49 | 97 | 0.0 | 4.0 | 0.00 | 0.03 | 0.03 | 82 | 1012.0 |
| 20260504001552 | 49 | 146 | 0.0 | 6.0 | 0.00 | 0.03 | 0.03 | 82 | 1011.9 |
| 20260504000049 | 49 | 115 | 2.0 | 8.0 | 0.00 | 0.03 | 0.03 | 82 | 1012.1 |
| 20260503234547 | 49 | 103 | 2.0 | 9.0 | 0.00 | 0.03 | 0.03 | 82 | 1012.3 |
| 20260503233047 | 49 | 117 | 4.0 | 11.0 | 0.00 | 0.03 | 0.03 | 80 | 1012.3 |
| 20260503231543 | 49 | 121 | 0.0 | 6.0 | 0.00 | 0.03 | 0.03 | 81 | 1012.5 |
| 20260503230141 | 49 | 58 | 1.0 | 6.0 | 0.00 | 0.03 | 0.03 | 81 | 1012.6 |
| 20260503224537 | 49 | 219 | 0.0 | 9.0 | 0.00 | 0.03 | 0.03 | 83 | 1012.6 |
| 20260503223038 | 48 | 159 | 0.0 | 10.0 | 0.00 | 0.03 | 0.03 | 83 | 1012.8 |
| 20260503221536 | 48 | 109 | 2.0 | 8.0 | 0.00 | 0.03 | 0.03 | 83 | 1012.9 |
| 20260503220031 | 48 | 125 | 3.0 | 10.0 | 0.02 | 0.03 | 0.03 | 83 | 1012.9 |
| 20260503214530 | 48 | 121 | 3.0 | 8.0 | 0.03 | 0.03 | 0.03 | 84 | 1013.2 |
| 20260503213027 | 48 | 152 | 2.0 | 10.0 | 0.03 | 0.03 | 0.03 | 84 | 1013.6 |
| 20260503211523 | 48 | 135 | 4.0 | 10.0 | 0.03 | 0.03 | 0.03 | 84 | 1013.9 |
| 20260503210018 | 48 | 196 | 2.0 | 11.0 | 0.02 | 0.02 | 0.02 | 83 | 1014.6 |
| 20260503204519 | 49 | 138 | 6.0 | 25.0 | 0.00 | 0.00 | 0.00 | 80 | 1015.2 |
| 20260503203014 | 51 | 251 | 3.0 | 26.0 | 0.00 | 0.00 | 0.00 | 77 | 1015.5 |